MSC Ines — 3EFZ3 — position and weather

sailwx.info

Track history (hours):
 
Tides and Currents Weather Stations Pressure Air Temp Water Temp Dewpoint Dewpoint Depression Visibility Wind Speed Wind Dir Waves Ship Positions

MSC Ines

Last reported at 2015-Mar-25 12:21 UTC. Time now 2015-Mar-28 22:13 UTC.
Position N 30°33' E 122°13'.

Length 349 m; draft 10.8 m.

Type: Ship (hazmat cat A). MMSI: 356112000.

Date/timePositionNaut miles runAvg speedWind from/ knotsBaromVisibWave heightAir tempDewpointWater temp
2015-Mar-25 12:21N 30°33' E 122°13'911.3
2015-Mar-25 11:31N 30°37' E 122°03'0 0.1
2015-Mar-25 09:33N 30°38' E 122°03'0 0.0
2015-Mar-25 03:04N 30°38' E 122°03'0 0.0
2015-Mar-25 02:14N 30°38' E 122°03'0 0.0
2015-Mar-25 01:31N 30°38' E 122°03'0 0.0
2015-Mar-25 00:31N 30°38' E 122°03'1 0.6
2015-Mar-24 23:33N 30°37' E 122°04'2 2.3
2015-Mar-24 22:33N 30°36' E 122°06'9 9.4
2015-Mar-24 21:33N 30°34' E 122°17'51 2.6
2015-Mar-24 01:32N 29°43' E 122°26'1313.1
2015-Mar-24 00:33N 29°49' E 122°13'1110.6
2015-Mar-23 23:34N 29°54' E 122°02'0 0.4
2015-Mar-23 22:27N 29°54' E 122°02'0 0.0
2015-Mar-23 20:27N 29°54' E 122°02'0 0.0
2015-Mar-23 19:09N 29°54' E 122°02'0 0.0
2015-Mar-23 18:33N 29°54' E 122°02'0 0.0
2015-Mar-23 17:15N 29°54' E 122°02'0 0.0
2015-Mar-23 16:09N 29°54' E 122°02'0 0.0
2015-Mar-23 15:27N 29°54' E 122°02'0 0.0
2015-Mar-23 14:25N 29°54' E 122°02'0 0.0
2015-Mar-23 13:31N 29°54' E 122°02'0 0.0
2015-Mar-23 10:33N 29°54' E 122°02'0 0.0
2015-Mar-23 09:13N 29°54' E 122°02'0 0.1
2015-Mar-23 08:31N 29°54' E 122°02'3 2.7
2015-Mar-23 07:33N 29°54' E 122°05'8 8.0
2015-Mar-23 06:33N 29°50' E 122°13'1010.0
2015-Mar-23 05:33N 29°44' E 122°22'1514.7
2015-Mar-23 04:33N 29°41' E 122°39'4313.3
2015-Mar-23 01:21N 29°41' E 123°28'1214.2
2015-Mar-23 00:28N 29°40' E 123°42'1414.0
2015-Mar-22 23:30N 29°36' E 123°57'5413.7
2015-Mar-22 19:33N 28°49' E 123°26'33815.3
2015-Mar-21 21:25N 24°34' E 119°17'1517.4
2015-Mar-21 20:33N 24°25' E 119°04'1616.5
2015-Mar-21 19:33N 24°14' E 118°50'3216.0
2015-Mar-21 17:33N 23°54' E 118°23'1716.6
2015-Mar-21 16:33N 23°44' E 118°08'2617.6
2015-Mar-21 15:04N 23°27' E 117°47'21515.8
2015-Mar-21 01:28N 22°17' E 114°06'4 4.0
2015-Mar-21 00:33N 22°20' E 114°07'0 0.4
2015-Mar-20 23:29N 22°20' E 114°07'0 0.0
2015-Mar-20 22:29N 22°20' E 114°07'0 0.0
2015-Mar-20 21:32N 22°20' E 114°07'0 0.0
2015-Mar-20 20:32N 22°20' E 114°07'0 0.0
2015-Mar-20 19:29N 22°20' E 114°07'0 0.0
2015-Mar-20 18:29N 22°20' E 114°07'0 0.0
2015-Mar-20 16:08N 22°20' E 114°07'0 0.0
2015-Mar-20 15:23N 22°20' E 114°07'0 0.0
2015-Mar-20 14:29N 22°20' E 114°07'0 0.0
2015-Mar-20 12:23N 22°20' E 114°07'0 0.0
2015-Mar-20 11:29N 22°20' E 114°07'0 0.0
2015-Mar-20 10:29N 22°20' E 114°07'0 0.0
2015-Mar-20 09:16N 22°20' E 114°07'1 1.5
2015-Mar-20 08:33N 22°19' E 114°07'11 9.0
2015-Mar-20 07:17N 22°22' E 113°55'6 8.2
2015-Mar-20 06:33N 22°27' E 113°53'0 0.2
2015-Mar-20 05:16N 22°27' E 113°53'0 0.0
2015-Mar-20 04:22N 22°27' E 113°53'0 0.0
2015-Mar-20 02:23N 22°27' E 113°53'0 0.0
2015-Mar-20 01:31N 22°27' E 113°53'0 0.0
2015-Mar-20 00:28N 22°27' E 113°53'0 0.0
2015-Mar-19 23:28N 22°27' E 113°53'0 0.0
2015-Mar-19 22:28N 22°27' E 113°53'0 0.0
2015-Mar-19 21:28N 22°27' E 113°53'0 0.0
2015-Mar-19 20:28N 22°27' E 113°53'0 0.0
2015-Mar-19 19:28N 22°27' E 113°53'0 0.0
2015-Mar-19 18:16N 22°27' E 113°53'0 0.0
2015-Mar-19 17:28N 22°27' E 113°53'0 0.0
2015-Mar-19 16:10N 22°27' E 113°53'0 0.0
2015-Mar-19 15:28N 22°27' E 113°53'0 0.0
2015-Mar-19 14:24N 22°27' E 113°53'0 0.0
2015-Mar-19 13:30N 22°27' E 113°53'0 0.0
2015-Mar-19 12:18N 22°27' E 113°53'0 0.0
2015-Mar-19 11:30N 22°27' E 113°53'0 0.0
2015-Mar-19 09:30N 22°27' E 113°53'3 3.2
2015-Mar-19 08:33N 22°24' E 113°53'1211.0
2015-Mar-19 07:31N 22°20' E 114°05'19 9.5
2015-Mar-19 05:33N 22°08' E 114°20'16015.5
2015-Mar-18 19:16N 22°48' E 117°08'6917.9
2015-Mar-18 15:23N 23°36' E 118°02'1618.6
2015-Mar-18 14:33N 23°45' E 118°16'6218.0
2015-Mar-18 11:07N 24°19' E 119°12'1117.3
2015-Mar-18 10:28N 24°26' E 119°22'3316.4
2015-Mar-18 08:27N 24°42' E 119°54'1616.8
2015-Mar-18 07:29N 24°51' E 120°09'361 7.2
2015-Mar-16 05:08N 30°20' E 122°57'2817.4
2015-Mar-16 03:33N 30°31' E 122°28'1717.1
2015-Mar-16 02:33N 30°34' E 122°09'6 6.1
2015-Mar-16 01:32N 30°38' E 122°03'0 0.0
2015-Mar-16 00:29N 30°38' E 122°03'0 0.0
2015-Mar-15 23:32N 30°38' E 122°03'0 0.0
2015-Mar-15 22:31N 30°38' E 122°03'0 0.0
2015-Mar-15 21:31N 30°38' E 122°03'0 0.0
2015-Mar-15 20:28N 30°38' E 122°03'0 0.0
2015-Mar-15 19:31N 30°38' E 122°03'0 0.0
2015-Mar-15 18:31N 30°38' E 122°03'0 0.0
2015-Mar-15 17:31N 30°38' E 122°03'0 0.0
2015-Mar-15 16:31N 30°38' E 122°03'0 0.0
2015-Mar-15 15:31N 30°38' E 122°03'2 1.8
2015-Mar-15 14:33N 30°37' E 122°04'1010.5
2015-Mar-15 13:33N 30°34' E 122°16'1312.9
2015-Mar-15 12:33N 30°33' E 122°31'  
Track history (hours):
 
Tides and Currents Weather Stations Pressure Air Temp Water Temp Dewpoint Dewpoint Depression Visibility Wind Speed Wind Dir Waves Ship Positions

MSC Ines

Last reported at 2015-Mar-25 12:21 UTC. Time now 2015-Mar-28 22:13 UTC.
Position N 30°33' E 122°13'.

Length 349 m; draft 10.8 m.

Type: Ship (hazmat cat A). MMSI: 356112000.

Date/timePositionNaut miles runAvg speedWind from/ knotsBaromVisibWave heightAir tempDewpointWater temp
2015-Mar-25 12:21N 30°33' E 122°13'911.3
2015-Mar-25 11:31N 30°37' E 122°03'0 0.1
2015-Mar-25 09:33N 30°38' E 122°03'0 0.0
2015-Mar-25 03:04N 30°38' E 122°03'0 0.0
2015-Mar-25 02:14N 30°38' E 122°03'0 0.0
2015-Mar-25 01:31N 30°38' E 122°03'0 0.0
2015-Mar-25 00:31N 30°38' E 122°03'1 0.6
2015-Mar-24 23:33N 30°37' E 122°04'2 2.3
2015-Mar-24 22:33N 30°36' E 122°06'9 9.4
2015-Mar-24 21:33N 30°34' E 122°17'51 2.6
2015-Mar-24 01:32N 29°43' E 122°26'1313.1
2015-Mar-24 00:33N 29°49' E 122°13'1110.6
2015-Mar-23 23:34N 29°54' E 122°02'0 0.4
2015-Mar-23 22:27N 29°54' E 122°02'0 0.0
2015-Mar-23 20:27N 29°54' E 122°02'0 0.0
2015-Mar-23 19:09N 29°54' E 122°02'0 0.0
2015-Mar-23 18:33N 29°54' E 122°02'0 0.0
2015-Mar-23 17:15N 29°54' E 122°02'0 0.0
2015-Mar-23 16:09N 29°54' E 122°02'0 0.0
2015-Mar-23 15:27N 29°54' E 122°02'0 0.0
2015-Mar-23 14:25N 29°54' E 122°02'0 0.0
2015-Mar-23 13:31N 29°54' E 122°02'0 0.0
2015-Mar-23 10:33N 29°54' E 122°02'0 0.0
2015-Mar-23 09:13N 29°54' E 122°02'0 0.1
2015-Mar-23 08:31N 29°54' E 122°02'3 2.7
2015-Mar-23 07:33N 29°54' E 122°05'8 8.0
2015-Mar-23 06:33N 29°50' E 122°13'1010.0
2015-Mar-23 05:33N 29°44' E 122°22'1514.7
2015-Mar-23 04:33N 29°41' E 122°39'4313.3
2015-Mar-23 01:21N 29°41' E 123°28'1214.2
2015-Mar-23 00:28N 29°40' E 123°42'1414.0
2015-Mar-22 23:30N 29°36' E 123°57'5413.7
2015-Mar-22 19:33N 28°49' E 123°26'33815.3
2015-Mar-21 21:25N 24°34' E 119°17'1517.4
2015-Mar-21 20:33N 24°25' E 119°04'1616.5
2015-Mar-21 19:33N 24°14' E 118°50'3216.0
2015-Mar-21 17:33N 23°54' E 118°23'1716.6
2015-Mar-21 16:33N 23°44' E 118°08'2617.6
2015-Mar-21 15:04N 23°27' E 117°47'21515.8
2015-Mar-21 01:28N 22°17' E 114°06'4 4.0
2015-Mar-21 00:33N 22°20' E 114°07'0 0.4
2015-Mar-20 23:29N 22°20' E 114°07'0 0.0
2015-Mar-20 22:29N 22°20' E 114°07'0 0.0
2015-Mar-20 21:32N 22°20' E 114°07'0 0.0
2015-Mar-20 20:32N 22°20' E 114°07'0 0.0
2015-Mar-20 19:29N 22°20' E 114°07'0 0.0
2015-Mar-20 18:29N 22°20' E 114°07'0 0.0
2015-Mar-20 16:08N 22°20' E 114°07'0 0.0
2015-Mar-20 15:23N 22°20' E 114°07'0 0.0
2015-Mar-20 14:29N 22°20' E 114°07'0 0.0
2015-Mar-20 12:23N 22°20' E 114°07'0 0.0
2015-Mar-20 11:29N 22°20' E 114°07'0 0.0
2015-Mar-20 10:29N 22°20' E 114°07'0 0.0
2015-Mar-20 09:16N 22°20' E 114°07'1 1.5
2015-Mar-20 08:33N 22°19' E 114°07'11 9.0
2015-Mar-20 07:17N 22°22' E 113°55'6 8.2
2015-Mar-20 06:33N 22°27' E 113°53'0 0.2
2015-Mar-20 05:16N 22°27' E 113°53'0 0.0
2015-Mar-20 04:22N 22°27' E 113°53'0 0.0
2015-Mar-20 02:23N 22°27' E 113°53'0 0.0
2015-Mar-20 01:31N 22°27' E 113°53'0 0.0
2015-Mar-20 00:28N 22°27' E 113°53'0 0.0
2015-Mar-19 23:28N 22°27' E 113°53'0 0.0
2015-Mar-19 22:28N 22°27' E 113°53'0 0.0
2015-Mar-19 21:28N 22°27' E 113°53'0 0.0
2015-Mar-19 20:28N 22°27' E 113°53'0 0.0
2015-Mar-19 19:28N 22°27' E 113°53'0 0.0
2015-Mar-19 18:16N 22°27' E 113°53'0 0.0
2015-Mar-19 17:28N 22°27' E 113°53'0 0.0
2015-Mar-19 16:10N 22°27' E 113°53'0 0.0
2015-Mar-19 15:28N 22°27' E 113°53'0 0.0
2015-Mar-19 14:24N 22°27' E 113°53'0 0.0
2015-Mar-19 13:30N 22°27' E 113°53'0 0.0
2015-Mar-19 12:18N 22°27' E 113°53'0 0.0
2015-Mar-19 11:30N 22°27' E 113°53'0 0.0
2015-Mar-19 09:30N 22°27' E 113°53'3 3.2
2015-Mar-19 08:33N 22°24' E 113°53'1211.0
2015-Mar-19 07:31N 22°20' E 114°05'19 9.5
2015-Mar-19 05:33N 22°08' E 114°20'16015.5
2015-Mar-18 19:16N 22°48' E 117°08'6917.9
2015-Mar-18 15:23N 23°36' E 118°02'1618.6
2015-Mar-18 14:33N 23°45' E 118°16'6218.0
2015-Mar-18 11:07N 24°19' E 119°12'1117.3
2015-Mar-18 10:28N 24°26' E 119°22'3316.4
2015-Mar-18 08:27N 24°42' E 119°54'1616.8
2015-Mar-18 07:29N 24°51' E 120°09'361 7.2
2015-Mar-16 05:08N 30°20' E 122°57'2817.4
2015-Mar-16 03:33N 30°31' E 122°28'1717.1
2015-Mar-16 02:33N 30°34' E 122°09'6 6.1
2015-Mar-16 01:32N 30°38' E 122°03'0 0.0
2015-Mar-16 00:29N 30°38' E 122°03'0 0.0
2015-Mar-15 23:32N 30°38' E 122°03'0 0.0
2015-Mar-15 22:31N 30°38' E 122°03'0 0.0
2015-Mar-15 21:31N 30°38' E 122°03'0 0.0
2015-Mar-15 20:28N 30°38' E 122°03'0 0.0
2015-Mar-15 19:31N 30°38' E 122°03'0 0.0
2015-Mar-15 18:31N 30°38' E 122°03'0 0.0
2015-Mar-15 17:31N 30°38' E 122°03'0 0.0
2015-Mar-15 16:31N 30°38' E 122°03'0 0.0
2015-Mar-15 15:31N 30°38' E 122°03'2 1.8
2015-Mar-15 14:33N 30°37' E 122°04'1010.5
2015-Mar-15 13:33N 30°34' E 122°16'1312.9
2015-Mar-15 12:33N 30°33' E 122°31'  

Dump ship's entire track history